This is the latest recevied weather packets stored in our database for station/object W8CEN. If no packets are shown the sender has not sent any weather packets the latest 1 day(s).
| Time | Temp. | Humidity | Pressure | Rain* | Wind** | Luminosity | Snow |
|---|---|---|---|---|---|---|---|
| 1777989826 | 17.78° C | 69% | 984.5 hPa | 0 mm | 3.13 m/s, 257° | 292 W/m² | - |
| 1777989523 | 17.78° C | 69% | 984.5 hPa | 0 mm | 2.24 m/s, 245° | 416 W/m² | - |
| 1777989219 | 17.22° C | 70% | 984.2 hPa | 0 mm | 1.79 m/s, 237° | 390 W/m² | - |
| 1777988915 | 17.78° C | 70% | 984.3 hPa | 0 mm | 2.24 m/s, 251° | 365 W/m² | - |
| 1777988612 | 17.22° C | 71% | 984.4 hPa | 0 mm | 0.89 m/s, 240° | 426 W/m² | - |
| 1777988309 | 17.22° C | 70% | 984.6 hPa | 0 mm | 1.79 m/s, 249° | 335 W/m² | - |
| 1777988006 | 17.22° C | 71% | 984.6 hPa | 0 mm | 2.24 m/s, 243° | 379 W/m² | - |
| 1777987701 | 16.67° C | 71% | 984.3 hPa | 0 mm | 2.24 m/s, 227° | 331 W/m² | - |
| 1777987399 | 16.67° C | 71% | 984.3 hPa | 0 mm | 4.92 m/s, 245° | 308 W/m² | - |
| 1777987096 | 17.22° C | 71% | 984.2 hPa | 0 mm | 2.24 m/s, 229° | 300 W/m² | - |
| 1777986794 | 17.22° C | 70% | 984.2 hPa | 0 mm | 1.34 m/s, 245° | 312 W/m² | - |
| 1777986491 | 17.22° C | 71% | 984.2 hPa | 0 mm | 1.79 m/s, 238° | 311 W/m² | - |
| 1777986189 | 16.67° C | 70% | 983.8 hPa | 0 mm | 2.24 m/s, 245° | 308 W/m² | - |
| 1777985886 | 16.67° C | 71% | 984 hPa | 0 mm | 2.68 m/s, 258° | 305 W/m² | - |
| 1777985583 | 17.22° C | 71% | 984 hPa | 0 mm | 1.34 m/s, 235° | 274 W/m² | - |
| 1777985280 | 17.22° C | 70% | 984 hPa | 0 mm | 1.34 m/s, 224° | 283 W/m² | - |
| 1777984976 | 16.67° C | 71% | 984.2 hPa | 0 mm | 1.79 m/s, 255° | 305 W/m² | - |
| 1777984672 | 16.11° C | 72% | 984.1 hPa | 0 mm | 1.79 m/s, 264° | 263 W/m² | - |
| 1777984369 | 16.11° C | 73% | 983.9 hPa | 0 mm | 0.89 m/s, 219° | 187 W/m² | - |
| 1777984065 | 16.11° C | 73% | 984.1 hPa | 0 mm | 1.79 m/s, 247° | 145 W/m² | - |
| 1777983763 | 16.11° C | 73% | 983.8 hPa | 0 mm | 1.79 m/s, 251° | 97 W/m² | - |
| 1777983459 | 15.56° C | 73% | 983.9 hPa | 0 mm | 2.24 m/s, 224° | 152 W/m² | - |
| 1777983156 | 15.56° C | 73% | 983.9 hPa | 0 mm | 2.24 m/s, 232° | 130 W/m² | - |
| 1777982852 | 15.56° C | 73% | 983.9 hPa | 0 mm | 1.79 m/s, 251° | 114 W/m² | - |
| 1777982548 | 15.56° C | 73% | 984 hPa | 0 mm | 2.24 m/s, 245° | 123 W/m² | - |
* Rain latest hour (hover to see other rain measurements)
** Current wind speed in m/s (hover to see current wind gust speed)